TimeCST,TemperatureF,Dew PointF,Humidity,Sea Level PressureIn,VisibilityMPH,Wind Direction,Wind SpeedMPH,Gust SpeedMPH,PrecipitationIn,Events,Conditions,WindDirDegrees,DateUTC
12:15 AM,1.4,-7.6,66,30.24,10.0,WNW,16.1,-,N/A,,Clear,290,2013-02-01 06:15:00
12:35 AM,1.4,-5.8,72,30.25,10.0,West,17.3,25.3,N/A,,Scattered Clouds,280,2013-02-01 06:35:00
12:55 AM,1.4,-5.8,72,30.26,10.0,West,19.6,23.0,N/A,,Scattered Clouds,280,2013-02-01 06:55:00
1:15 AM,1.4,-7.6,66,30.26,10.0,WNW,18.4,-,N/A,,Partly Cloudy,290,2013-02-01 07:15:00
1:35 AM,1.4,-5.8,72,30.27,10.0,WNW,21.9,-,N/A,,Clear,290,2013-02-01 07:35:00
1:55 AM,1.4,-7.6,66,30.28,10.0,West,20.7,-,N/A,,Clear,280,2013-02-01 07:55:00
2:15 AM,1.4,-5.8,72,30.29,10.0,WNW,21.9,-,N/A,,Clear,290,2013-02-01 08:15:00
2:35 AM,-0.4,-7.6,72,30.30,10.0,WNW,18.4,26.5,N/A,,Clear,300,2013-02-01 08:35:00
2:55 AM,-0.4,-7.6,72,30.30,10.0,WNW,18.4,-,N/A,,Clear,290,2013-02-01 08:55:00
3:15 AM,-0.4,-7.6,72,30.30,10.0,WNW,16.1,20.7,N/A,,Clear,290,2013-02-01 09:15:00
3:35 AM,-0.4,-7.6,72,30.30,10.0,WNW,17.3,-,N/A,,Clear,290,2013-02-01 09:35:00
4:15 AM,-0.4,-9.4,66,30.31,10.0,WNW,16.1,-,N/A,,Clear,290,2013-02-01 10:15:00
4:35 AM,-0.4,-9.4,66,30.32,10.0,WNW,15.0,-,N/A,,Clear,290,2013-02-01 10:35:00
4:55 AM,-0.4,-9.4,66,30.32,10.0,WNW,12.7,-,N/A,,Clear,300,2013-02-01 10:55:00
5:15 AM,-0.4,-9.4,66,30.32,10.0,West,15.0,-,N/A,,Clear,280,2013-02-01 11:15:00
5:35 AM,-0.4,-9.4,66,30.33,10.0,West,13.8,-,N/A,,Clear,280,2013-02-01 11:35:00
5:55 AM,-0.4,-9.4,66,30.33,10.0,West,15.0,-,N/A,,Clear,280,2013-02-01 11:55:00
6:15 AM,-0.4,-9.4,66,30.33,10.0,WNW,15.0,-,N/A,,Clear,290,2013-02-01 12:15:00
6:35 AM,-0.4,-9.4,66,30.34,10.0,WNW,16.1,20.7,N/A,,Clear,290,2013-02-01 12:35:00
6:55 AM,-2.2,-9.4,71,30.35,10.0,West,16.1,21.9,N/A,,Clear,280,2013-02-01 12:55:00
7:15 AM,-2.2,-9.4,71,30.35,10.0,West,18.4,-,N/A,,Clear,280,2013-02-01 13:15:00
7:35 AM,-0.4,-9.4,66,30.36,10.0,West,13.8,-,N/A,,Clear,280,2013-02-01 13:35:00
7:55 AM,-0.4,-9.4,66,30.36,10.0,WNW,12.7,-,N/A,,Clear,290,2013-02-01 13:55:00
8:15 AM,-0.4,-9.4,66,30.35,10.0,WNW,15.0,-,N/A,,Clear,290,2013-02-01 14:15:00
8:35 AM,-0.4,-9.4,66,30.37,10.0,West,16.1,-,N/A,,Clear,280,2013-02-01 14:35:00
8:55 AM,1.4,-7.6,66,30.37,10.0,West,13.8,-,N/A,,Clear,280,2013-02-01 14:55:00
9:15 AM,1.4,-7.6,66,30.38,10.0,West,13.8,-,N/A,,Clear,270,2013-02-01 15:15:00
9:35 AM,3.2,-7.6,61,30.37,10.0,West,12.7,-,N/A,,Clear,270,2013-02-01 15:35:00
10:15 AM,3.2,-5.8,66,30.38,10.0,West,12.7,-,N/A,,Clear,270,2013-02-01 16:15:00
10:35 AM,5.0,-5.8,61,30.38,10.0,West,15.0,-,N/A,,Clear,270,2013-02-01 16:35:00
11:15 AM,6.8,-4.0,61,30.37,10.0,West,11.5,-,N/A,,Clear,260,2013-02-01 17:15:00
11:55 AM,6.8,-4.0,61,30.37,10.0,West,15.0,23.0,N/A,,Clear,270,2013-02-01 17:55:00
12:15 PM,8.6,-2.2,62,30.36,10.0,West,15.0,-,N/A,,Clear,260,2013-02-01 18:15:00
12:35 PM,8.6,-2.2,62,30.35,10.0,West,12.7,18.4,N/A,,Clear,260,2013-02-01 18:35:00
12:55 PM,8.6,-2.2,62,30.34,10.0,West,10.4,-,N/A,,Clear,260,2013-02-01 18:55:00
1:15 PM,8.6,-2.2,62,30.34,10.0,West,13.8,-,N/A,,Clear,270,2013-02-01 19:15:00
1:35 PM,10.4,-2.2,57,30.32,10.0,West,12.7,16.1,N/A,,Clear,270,2013-02-01 19:35:00
1:55 PM,10.4,-0.4,62,30.31,10.0,West,9.2,16.1,N/A,,Clear,260,2013-02-01 19:55:00
2:15 PM,10.4,-0.4,62,30.30,10.0,WSW,9.2,-,N/A,,Clear,250,2013-02-01 20:15:00
2:35 PM,12.2,-0.4,57,30.30,10.0,West,11.5,16.1,N/A,,Clear,270,2013-02-01 20:35:00
2:55 PM,12.2,-0.4,57,30.29,10.0,WSW,11.5,-,N/A,,Clear,250,2013-02-01 20:55:00
3:35 PM,12.2,1.4,62,30.30,10.0,WSW,11.5,16.1,N/A,,Partly Cloudy,250,2013-02-01 21:35:00
3:56 PM,12.2,1.4,62,30.30,10.0,WSW,11.5,19.6,N/A,,Partly Cloudy,250,2013-02-01 21:56:00
4:15 PM,10.4,-0.4,62,30.29,10.0,WSW,13.8,-,N/A,,Clear,250,2013-02-01 22:15:00
4:35 PM,10.4,-2.2,57,30.28,10.0,WSW,11.5,-,N/A,,Clear,250,2013-02-01 22:35:00
4:55 PM,10.4,-0.4,62,30.27,10.0,West,11.5,-,N/A,,Mostly Cloudy,260,2013-02-01 22:55:00
5:16 PM,10.4,1.4,67,30.26,10.0,WSW,9.2,-,N/A,,Overcast,250,2013-02-01 23:16:00
5:35 PM,10.4,-0.4,62,30.25,10.0,WSW,6.9,-,N/A,,Mostly Cloudy,240,2013-02-01 23:35:00
5:55 PM,10.4,1.4,67,30.25,10.0,WSW,9.2,-,N/A,,Overcast,250,2013-02-01 23:55:00
6:15 PM,10.4,-0.4,62,30.24,10.0,WSW,6.9,-,N/A,,Overcast,240,2013-02-02 00:15:00
6:35 PM,12.2,3.2,67,30.23,10.0,SW,4.6,-,N/A,,Overcast,230,2013-02-02 00:35:00
6:55 PM,12.2,3.2,67,30.22,10.0,SW,3.5,-,N/A,,Overcast,230,2013-02-02 00:55:00
7:15 PM,12.2,3.2,67,30.22,10.0,SW,5.8,-,N/A,,Overcast,230,2013-02-02 01:15:00
7:35 PM,14.0,3.2,62,30.20,10.0,WSW,4.6,-,N/A,,Overcast,240,2013-02-02 01:35:00
7:55 PM,14.0,5.0,67,30.19,10.0,SSW,4.6,-,N/A,,Overcast,200,2013-02-02 01:55:00
8:15 PM,15.8,6.8,68,30.20,10.0,WSW,3.5,-,N/A,,Overcast,250,2013-02-02 02:15:00
8:35 PM,15.8,6.8,68,30.19,6.0,SW,4.6,-,N/A,,Overcast,230,2013-02-02 02:35:00
8:55 PM,15.8,8.6,73,30.18,3.0,Calm,Calm,-,N/A,,Overcast,0,2013-02-02 02:55:00
9:15 PM,15.8,8.6,73,30.18,5.0,SW,4.6,-,N/A,,Overcast,220,2013-02-02 03:15:00
9:35 PM,15.8,8.6,73,30.17,9.0,South,4.6,-,N/A,,Overcast,180,2013-02-02 03:35:00
9:55 PM,15.8,8.6,73,30.17,9.0,SSW,3.5,-,N/A,,Overcast,210,2013-02-02 03:55:00
10:15 PM,17.6,8.6,68,30.16,8.0,Calm,Calm,-,N/A,,Overcast,0,2013-02-02 04:15:00
10:35 PM,17.6,8.6,68,30.16,3.0,SSW,3.5,-,N/A,,Overcast,200,2013-02-02 04:35:00
10:55 PM,17.6,10.4,73,30.16,5.0,Calm,Calm,-,N/A,,Overcast,0,2013-02-02 04:55:00
11:15 PM,17.6,12.2,79,30.15,10.0,Calm,Calm,-,N/A,,Overcast,0,2013-02-02 05:15:00
11:35 PM,17.6,12.2,79,30.15,2.5,South,5.8,-,N/A,,Overcast,180,2013-02-02 05:35:00
11:55 PM,17.6,12.2,79,30.13,5.0,South,5.8,-,N/A,,Overcast,180,2013-02-02 05:55:00